Flag for Switzerland Weather past 2 weeks in Geneva, Geneva, Switzerland

Now
70 °F

Scattered clouds.


Feels Like: 77 °F
Forecast: 53 / 68 °F
Wind: 3 mph from Northeast

Location: Geneve-Cointrin

Current Time: Sep 2, 2015 at 5:44:17 PM

Latest Report: Sep 2, 2015 at 5:00 PM


Visibility: 44 mi

Pressure: 29.93 "Hg

Humidity: 53%

Dew point: 52 °F

Location of GenevaLocation

Historic Weather in Geneva — Graph

°F

Geneva temperature yesterday

Maximum temperature yesterday: 74 °F (at 3:00 AM)
Minimum temperature yesterday: 63 °F (at 10:00 PM)
Average temperature yesterday: 69 °F

Past Weeks' High & Low Weather Summary

 TemperatureHumidityPressure
High89 °F (Aug 30, 6:00 PM)94% (Aug 24, 5:00 AM)30.25 "Hg (Aug 24, 5:00 AM)
Low49 °F (Aug 20, 7:00 AM)26% (Aug 25, 4:00 PM)29.73 "Hg (Aug 24, 4:00 AM)
Average68 °F65%30.03 "Hg
* Reported Aug 18 4:00 PM — Sep 2 4:00 PM, Geneva, Weather by CustomWeather, © 2015

Note: Actual official high and low records may vary slightly from our data, if they occured in-between our weather recording intervals... More about our weather records

Advertising

Geneva weather history for previous 24 hours

 ConditionsComfort  
Time TempWeatherWind HumidityBarometerVisibility
4:00 PM
Wed, Sep 2
70 °FMild.3 mph53%29.94 "HgN/A
3:00 PM72 °FMild.7 mph49%29.95 "HgN/A
2:00 PM71 °FScattered clouds.7 mph56%29.95 "Hg37 mi
1:00 PM69 °FMild.8 mph60%29.96 "HgN/A
12:00 PM67 °FMild.9 mph66%29.98 "HgN/A
11:00 AM65 °FScattered clouds.8 mph69%29.99 "Hg37 mi
10:40 AM65 °FScattered clouds.9 mph68%29.99 "Hg37 mi
10:00 AM64 °FMild.5 mph75%29.99 "HgN/A
9:00 AM62 °FCool.3 mph82%30.01 "HgN/A
8:00 AM58 °FPartly sunny.1 mph87%30.02 "Hg37 mi
7:00 AM56 °FCool.1 mph90%30.03 "HgN/A
5:00 AM57 °FOvercast.2 mph90%30.03 "Hg25 mi
4:00 AM58 °FCool.2 mph87%30.04 "HgN/A
3:00 AM59 °FCool.1 mph93%30.05 "HgN/A
2:00 AM60 °FOvercast.1 mph94%30.06 "Hg22 mi
1:00 AM60 °FCool.1 mph92%30.08 "HgN/A
12:00 AM62 °FCool.3 mph91%30.07 "HgN/A
10:00 PM
Tue, Sep 1
63 °FMild.3 mph92%30.07 "HgN/A
9:00 PM63 °FMild.2 mph88%30.06 "HgN/A
8:00 PM65 °FLow clouds.2 mph89%30.04 "Hg19 mi
7:00 PM65 °FMild.3 mph88%30.03 "HgN/A
6:00 PM66 °FMild.5 mph89%30.03 "HgN/A
5:00 PM67 °FSprinkles. Low clouds.8 mph80%30.01 "Hg12 mi
Weather by CustomWeather, © 2015

See weather overviewHow to use our weather pages